User: anonymous   Login
Location: Hiekkapohja
(62.3333°N, 25.7833°E)
Time: 20:19:10
(UTC+00:00)
Language:

Meteor 1-22 Rocket - Orbit

View from above orbital plane
View from above orbital plane
View from above satellite
View from above satellite

Ground track
Ground track

The orbit data is extracted from the following two-line orbital elements,

1  8294U 75087B   20304.40640636 -.00000093  00000-0 -58346-4 0  9992
2  8294  81.2151 262.5024 0107266 168.6447 191.7182 14.08655145318181
Epoch (UTC): 30 October 2020 09:45:13
Eccentricity: 0.0107266
inclination: 81.2151°
perigee height: 786 km
apogee height: 941 km
right ascension of ascending node: 262.5024°
argument of perigee: 168.6447°
revolutions per day: 14.08655145
mean anomaly at epoch: 191.7182°
orbit number at epoch: 31818

The dashed part of the orbit path shows where the satellite is in the earth's shadow,  

DLR